Home   Weather   Pierre   Past weeks
Flag for USA

Past Weather in Pierre, South Dakota, USA — Yesterday and Last 2 Weeks

Now
4 °F

Clear.


Feels Like: -7 °F
Forecast: 17 / -1 °F
Wind: 6 mph from West

Location: Pierre Regional Airport

Current Time: Feb 20, 2019 at 11:53:23 pm

Latest Report: Feb 20, 2019 at 10:53 pm


Visibility: 10 mi

Pressure: 29.93 "Hg

Humidity: 91%

Dew Point: 2 °F

Location of PierreLocation

Past Weather in Pierre — Graph

°F

Pierre Temperature Yesterday

Maximum temperature yesterday: 15 °F (at 3:53 pm)
Minimum temperature yesterday: -12 °F (at 4:09 am)
Average temperature yesterday: 4 °F

High & Low Weather Summary for the Past Weeks

 TemperatureHumidityPressure
High21 °F (Feb 11, 4:53 pm)100% (Feb 11, 6:53 pm)30.68 "Hg (Feb 11, 6:53 pm)
Low-16 °F (Feb 8, 6:53 am)51% (Feb 7, 6:53 pm)29.57 "Hg (Feb 13, 5:53 pm)
Average5 °F81%30.17 "Hg
* Reported Feb 5 9:07 pm — Feb 20 9:53 pm, Pierre. Weather by CustomWeather, © 2019

Note: Actual official high and low records may vary slightly from our data, if they occured in-between our weather recording intervals... More about our weather records

Advertising

Pierre Weather History for the Previous 24 Hours

Scroll right to see more
 ConditionsComfort  
Time TempWeatherWind HumidityBarometerVisibility
9:53 pm
Wed, Feb 20
4 °FClear.6 mph88%29.91 "Hg10 mi
8:53 pm3 °FClear.9 mph87%29.88 "Hg10 mi
7:53 pm6 °FClear.14 mph87%29.86 "Hg10 mi
6:53 pm10 °FClear.12 mph88%29.82 "Hg10 mi
5:53 pm12 °FSunny.12 mph84%29.79 "Hg10 mi
4:53 pm15 °FSunny.14 mph77%29.75 "Hg10 mi
3:53 pm16 °FSunny.17 mph80%29.72 "Hg10 mi
2:53 pm17 °FOvercast.18 mph80%29.70 "Hg10 mi
1:53 pm16 °FLight snow. Mostly cloudy.20 mph80%29.70 "Hg9 mi
12:53 pm15 °FLight snow. Overcast.17 mph83%29.70 "Hg7 mi
11:53 am14 °FLight snow. Ice fog.12 mph84%29.70 "Hg3 mi
11:13 am13 °FLight snow. Ice fog.10 mph88%29.62 "Hg3 mi
11:05 am13 °FLight snow. Ice fog.8 mph88%29.62 "Hg2 mi
10:53 am13 °FLight snow. Ice fog.9 mph88%29.71 "Hg1 mi
10:22 am13 °FLight snow. Ice fog.6 mph88%29.63 "Hg2 mi
10:08 am13 °FLight snow. Ice fog.6 mph88%29.64 "Hg2 mi
9:32 am13 °FLight snow. Ice fog.6 mph84%29.65 "Hg2 mi
8:53 am10 °FLight snow. Ice fog.5 mph92%29.75 "Hg5 mi
8:17 am11 °FLight snow. Ice fog.3 mph92%29.65 "Hg2 mi
7:53 am11 °FLight snow. Ice fog.5 mph92%29.74 "Hg2 mi
7:25 am12 °FLight snow. Ice fog.6 mph92%29.65 "Hg2 mi
6:53 am13 °FLight snow. Ice fog.6 mph92%29.75 "Hg1 mi
6:08 am13 °FLight snow. Ice fog.6 mph92%29.68 "Hg2 mi
5:56 am13 °FLight snow. Ice fog.5 mph92%29.68 "Hg2 mi
4:53 am13 °FLight snow. Ice fog.7 mph92%29.81 "Hg4 mi
4:35 am13 °FLight snow. Ice fog.8 mph92%29.73 "Hg3 mi
4:17 am13 °FLight snow. Ice fog.9 mph92%29.74 "Hg2 mi
4:05 am13 °FLight snow. Ice fog.9 mph92%29.75 "Hg3 mi
3:53 am13 °FLight snow. Ice fog.9 mph92%29.85 "Hg2 mi
2:53 am14 °FLight snow. Ice fog.12 mph92%29.89 "Hg2 mi
1:53 am14 °FLight snow. Ice fog.9 mph92%29.95 "Hg1 mi
1:08 am14 °FLight snow. Ice fog.13 mph92%29.88 "Hg2 mi
12:53 am14 °FLight snow. Ice fog.15 mph92%29.99 "Hg1 mi
12:04 am14 °FLight snow. Ice fog.10 mph92%29.92 "Hg1 mi
11:33 pm
Tue, Feb 19
14 °FLight snow. Ice fog.12 mph92%29.93 "Hg2 mi
Weather by CustomWeather, © 2019

See weather overview